Cheyenne, WY

11:18 AM MDT on April 25, 2018 (GMT -0600)
Cheyenne

Weather History for KCYS - January, 2014

Change the Weather History Date:

Sunday, January 19, 2014

  Actual Average Record
Temperature  
Mean Temperature 47 °F 29 °F  
Max Temperature 54 °F 40 °F 62 °F (2018)
Min Temperature 40 °F 18 °F -26 °F (1883)
Degree Days  
Heating Degree Days 18 36  
Month to date heating degree days 662 685  
Since 1 July heating degree days 3562 3588  
Cooling Degree Days 0 0  
Month to date cooling degree days 0 0  
Year to date cooling degree days 0 0  
Moisture  
Dew Point 11 °F    
Average Humidity 26    
Maximum Humidity 33    
Minimum Humidity 18    
Precipitation  
Precipitation 0.00 in 0.01 in 0.44 in (1945)
Month to date precipitation 0.28 0.20  
Year to date precipitation 0.28 0.20  
Snow  
Snow 0.00 in 0.20 in 4.60 in (1945)
Month to date snowfall 5.0 3.6  
Since 1 July snowfall 30.7 26.3  
Snow Depth 0.00 in    
Sea Level Pressure  
Sea Level Pressure 29.94 in    
Wind  
Wind Speed 27 mph (West)    
Max Wind Speed 46 mph    
Max Gust Speed 59 mph    
Visibility 10 miles    
Events      
T = Trace of Precipitation, MM = Missing Value Source: NWS Daily Summary

Daily Weather History Graph

Daily Weather History Graph

Search for Another Location

Airport or City:

Astronomy

Jan. 19, 2014 Rise Set
Actual Time 7:20 AM MST 5:00 PM MST
Civil Twilight 6:50 AM MST 5:30 PM MST
Nautical Twilight 6:16 AM MST 6:03 PM MST
Astronomical Twilight 5:43 AM MST 6:36 PM MST
Moon 8:43 PM MST (1/19) 8:49 AM MST (1/19)
Length of Visible Light 10h 39m
Length of Day
9h 39m
Waning Gibbous, 89% of the Moon is Illuminated
Jan 19
Waning Gibbous
Jan 23
Last Quarter
Jan 30
New
Feb 6
First Quarter
Feb 14
Full

Hourly Weather History & Observations

Time (MST) Temp. Windchill Dew Point Humidity Pressure Visibility Wind Dir Wind Speed Gust Speed Precip Events Conditions
12:53 AM 42.1 °F 32.3 °F 12.0 °F 29% 29.98 in 10.0 mi WNW 24.2 mph - N/A   Clear
1:53 AM 42.1 °F 33.3 °F 12.9 °F 31% 29.98 in 10.0 mi West 19.6 mph 26.5 mph N/A   Clear
2:53 AM 42.1 °F 33.9 °F 14.0 °F 32% 29.97 in 10.0 mi WNW 17.3 mph 27.6 mph N/A   Clear
3:33 AM 42.8 °F 32.1 °F 14.0 °F 31% 30.01 in 10.0 mi West 31.1 mph 43.7 mph N/A   Clear
3:53 AM 42.1 °F 30.8 °F 12.9 °F 31% 29.93 in 10.0 mi West 33.4 mph 39.1 mph N/A   Clear
4:53 AM 42.1 °F 30.8 °F 12.0 °F 29% 29.94 in 10.0 mi West 33.4 mph 42.6 mph N/A   Clear
5:53 AM 42.1 °F 31.1 °F 12.0 °F 29% 29.96 in 10.0 mi West 31.1 mph 41.4 mph N/A   Clear
6:53 AM 42.1 °F 31.9 °F 12.0 °F 29% 30.03 in 10.0 mi West 26.5 mph 36.8 mph N/A   Clear
7:53 AM 43.0 °F 33.1 °F 12.9 °F 30% 29.97 in 10.0 mi West 26.5 mph 38.0 mph N/A   Clear
8:53 AM 44.1 °F 34.8 °F 12.9 °F 28% 29.98 in 10.0 mi WNW 25.3 mph 39.1 mph N/A   Clear
9:53 AM 46.9 °F - 12.9 °F 25% 29.99 in 10.0 mi WNW 34.5 mph 51.8 mph N/A   Clear
10:53 AM 51.1 °F - 12.9 °F 22% 29.96 in 10.0 mi WNW 36.8 mph 52.9 mph N/A   Clear
11:53 AM 52.0 °F - 12.9 °F 21% 29.96 in 10.0 mi West 41.4 mph 51.8 mph N/A   Clear
12:53 PM 53.1 °F - 12.9 °F 20% 29.92 in 10.0 mi West 33.4 mph 43.7 mph N/A   Clear
1:53 PM 53.1 °F - 12.9 °F 20% 29.90 in 10.0 mi West 29.9 mph 39.1 mph N/A   Clear
2:53 PM 52.0 °F - 12.9 °F 21% 29.91 in 10.0 mi West 28.8 mph 34.5 mph N/A   Clear
3:53 PM 46.9 °F - 14.0 °F 27% 29.94 in 10.0 mi West 16.1 mph - N/A   Clear
4:53 PM 46.9 °F - 14.0 °F 27% 29.93 in 10.0 mi West 24.2 mph 32.2 mph N/A   Clear
5:53 PM 44.1 °F 35.4 °F 12.9 °F 28% 29.95 in 10.0 mi West 21.9 mph - N/A   Clear
6:53 PM 44.1 °F 35.0 °F 10.0 °F 25% 29.92 in 10.0 mi West 24.2 mph 33.4 mph N/A   Clear
7:53 PM 43.0 °F 34.0 °F 8.1 °F 24% 29.91 in 10.0 mi West 21.9 mph 32.2 mph N/A   Clear
8:53 PM 43.0 °F 32.0 °F 6.1 °F 22% 29.87 in 10.0 mi West 33.4 mph 39.1 mph N/A   Clear
9:53 PM 44.1 °F 34.2 °F 5.0 °F 20% 29.85 in 10.0 mi West 28.8 mph 42.6 mph N/A   Clear
10:53 PM 44.1 °F 36.2 °F 3.9 °F 19% 29.87 in 10.0 mi WNW 18.4 mph 29.9 mph N/A   Clear
11:53 PM 42.1 °F 33.6 °F 6.1 °F 23% 29.91 in 10.0 mi NW 18.4 mph 27.6 mph N/A   Clear